Temp
2 3 3 3 3 3 3 4 4 5 5 5 5 6 6 6 7 7 7 7 8 9 9 9 9 10 10 10 10 10 10 10 10 10 10 10 9 10 10 9 8 8 9 8 8 9 10
1 1 2 3 3 3 3 3 4 4 4 5 5 5 6 6 6 6 7 7 7 8 9 9 10 10 10 10 10 10 10 10 10 10 10 10 10 9 9 9 8 8 8 8 8 9 9
1 1 1 2 2 3 3 3 3 4 4 4 4 5 5 6 6 6 6 7 7 8 8 9 9 10 10 10 10 10 10 10 10 10 9 9 9 9 9 8 8 8 8 8 9 9 9
0 1 1 1 1 2 2 2 2 3 3 4 4 5 5 5 6 6 6 7 7 7 8 8 9 9 10 10 9 9 9 10 9 9 9 9 8 8 8 8 8 8 9 8 8 9 8
0 1 1 0 1 1 0 1 1 2 2 3 4 4 5 5 5 6 6 6 6 7 7 7 8 8 9 9 9 9 9 9 9 8 9 8 8 8 8 8 8 8 8 8 8 8 8
1 1 0 0 1 1 1 1 1 1 2 2 3 4 4 5 5 5 5 5 5 6 6 7 7 8 8 9 9 8 8 8 8 8 8 8 8 8 8 8 7 8 8 7 8 8 8
1 0 0 1 0 0 0 1 2 1 1 2 2 2 4 4 4 5 5 5 5 6 6 6 7 8 7 8 8 8 8 7 8 7 7 8 8 9 8 7 7 6 7 7 8 8 8
-0 0 -0 0 -0 -1 0 0 0 1 1 1 2 2 2 2 3 4 4 4 4 5 6 6 7 8 8 7 8 8 7 7 7 7 7 7 8 8 8 7 6 6 6 7 8 8 7
-0 -0 0 0 -0 -1 -1 -0 -0 0 0 1 1 2 2 2 2 3 3 3 4 4 5 7 7 7 7 7 8 8 7 7 7 7 7 6 7 7 7 7 7 6 7 7 8 7 7
-0 0 0 1 1 0 -0 -1 -0 0 0 1 1 1 1 2 2 2 2 2 3 4 5 6 7 6 7 8 8 8 7 7 6 6 6 5 7 7 7 7 6 6 7 7 7 7 7
-0 -0 0 1 1 1 1 1 -1 -1 -0 -0 0 1 1 1 1 1 2 2 2 3 3 6 6 6 6 6 6 6 7 7 6 7 6 6 6 6 6 7 7 6 7 6 7 7 6
-5 -3 -1 0 1 1 1 0 -0 0 -1 -1 -1 -1 0 1 1 1 1 1 1 2 1 5 5 5 6 6 6 6 6 6 6 5 5 6 5 6 6 6 6 6 6 6 6 6 5
-6 -5 -4 -3 -1 1 1 1 1 0 1 -1 -1 -1 -1 -1 -0 0 0 0 1 -0 3 5 5 5 5 5 5 5 5 6 6 5 5 5 6 6 6 6 6 6 6 6 6 5 7
-7 -7 -6 -6 -2 -1 1 0 0 1 1 1 0 -1 -2 0 0 -0 -0 -0 -0 1 4 4 4 5 5 5 5 5 6 5 5 5 5 5 6 6 6 6 6 6 6 6 5 6 7
-6 -6 -7 -6 -5 -3 -1 -0 -0 -0 0 0 0 1 0 -1 1 -1 -1 -1 -0 1 2 3 4 4 4 4 5 5 5 5 5 5 5 5 5 5 5 5 5 5 5 5 4 2 2
-7 -6 -7 -7 -5 -5 -3 -2 -2 -1 -1 -0 0 1 2 1 1 0 -1 -1 -0 1 1 2 3 3 4 4 4 4 5 5 5 5 4 4 4 5 5 4 4 4 5 4 4 3 3
-8 -8 -7 -6 -5 -4 -4 -3 -3 -2 -2 -1 -1 -1 0 0 -1 -2 -1 -2 -1 -1 1 2 3 3 3 3 3 3 4 4 4 5 5 4 4 4 4 4 4 4 3 3 3 2 2
-8 -8 -7 -6 -5 -4 -4 -4 -3 -3 -3 -3 -2 -1 -1 -0 -2 -2 -1 -1 -1 -1 -0 1 1 2 2 2 2 2 3 3 3 3 3 4 3 3 3 3 3 2 2 -0 0 0 -0
-7 -7 -7 -6 -5 -5 -5 -4 -4 -4 -3 -3 -3 -2 -1 -2 -2 -3 -2 -1 -1 -1 -1 -1 -0 0 1 1 1 2 2 2 3 3 2 2 2 2 2 2 1 2 2 1 0 -0 -1
-7 -7 -6 -6 -6 -5 -5 -5 -5 -4 -3 -4 -4 -4 -3 -4 -3 -2 -3 -2 -2 -2 -2 -2 -1 -1 -0 -0 1 1 1 1 1 2 2 1 1 1 1 1 1 1 1 1 1 -0 0
-8 -7 -7 -6 -6 -5 -5 -5 -5 -5 -4 -4 -4 -4 -3 -3 -4 -3 -4 -3 -3 -2 -2 -1 -2 -1 -1 -1 -1 -0 0 0 0 0 1 1 1 0 1 1 1 1 -0 0 0 1 -1
-8 -7 -7 -7 -7 -6 -6 -6 -6 -6 -5 -5 -4 -4 -4 -4 -3 -4 -4 -4 -3 -2 -2 -2 -2 -2 -1 -2 -1 -1 -2 -1 -1 -0 -0 0 -0 -0 -1 -1 -0 -0 -1 1 1 1 -0
-8 -7 -7 -7 -7 -6 -6 -6 -6 -6 -6 -5 -5 -5 -5 -4 -4 -4 -4 -4 -3 -3 -3 -2 -1 -2 -2 -2 -2 -2 -2 -1 -1 -1 -1 -1 -1 -1 -1 -1 -1 -1 1 1 1 1 1
-8 -8 -7 -7 -7 -7 -6 -6 -6 -6 -6 -5 -4 -5 -5 -5 -5 -5 -4 -3 -3 -3 -2 -2 -2 -2 -2 -2 -3 -2 -2 -2 -2 -1 -1 -0 -1 -2 -1 -1 -1 1 1 1 0 1 1
-8 -8 -8 -7 -7 -7 -7 -6 -6 -6 -6 -7 -5 -6 -5 -5 -6 -5 -5 -4 -4 -3 -3 -3 -3 -3 -3 -2 -3 -3 -3 -3 -2 -1 -0 -1 -2 -2 -1 -1 -0 -1 1 1 0 0 0
-8 -8 -8 -7 -7 -7 -7 -7 -6 -6 -6 -8 -7 -6 -7 -7 -6 -6 -5 -5 -5 -3 -3 -3 -3 -3 -3 -3 -3 -3 -2 -2 -2 -1 0 -1 -2 -3 -2 -2 -1 0 0 -0 -0 -1 -0
-8 -8 -8 -7 -7 -7 -7 -6 -7 -6 -7 -8 -8 -8 -8 -8 -7 -7 -6 -5 -5 -5 -4 -3 -3 -4 -3 -4 -4 -3 -3 -3 -2 -2 -1 -2 -3 -3 -2 -3 -2 -1 -1 -1 -2 -2 -2
-9 -8 -8 -8 -7 -7 -7 -7 -7 -7 -7 -8 -8 -8 -8 -9 -8 -8 -7 -7 -5 -5 -4 -4 -4 -4 -4 -4 -3 -4 -3 -3 -3 -2 -2 -2 -2 -2 -3 -3 -2 -0 -1 -1 -2 -3 -3
-9 -8 -8 -8 -7 -7 -7 -7 -7 -7 -7 -8 -8 -8 -8 -8 -8 -7 -7 -7 -7 -5 -5 -4 -4 -4 -4 -4 -3 -4 -3 -3 -2 -3 -3 -3 -3 -2 -2 -1 -1 -1 -1 -2 -2 -2 -2
Height
3119 3123 3126 3129 3132 3136 3140 3144 3147 3150 3153 3156 3158 3161 3164 3165 3167 3169 3170 3171 3171 3173 3173 3173 3173 3175 3175 3175 3174 3173 3173 3172 3171 3171 3171 3170 3169 3170 3170 3171 3171 3171 3171 3171 3172 3172 3173
3113 3117 3121 3123 3126 3131 3134 3139 3141 3144 3148 3150 3153 3156 3159 3161 3162 3164 3166 3167 3168 3168 3170 3170 3171 3171 3173 3174 3172 3171 3170 3170 3171 3170 3169 3169 3168 3169 3169 3170 3170 3169 3169 3168 3169 3170 3169
3105 3109 3113 3117 3121 3125 3129 3133 3136 3139 3143 3146 3147 3151 3154 3156 3159 3160 3161 3163 3163 3164 3166 3166 3167 3167 3169 3170 3169 3169 3168 3168 3168 3168 3168 3167 3167 3167 3168 3169 3167 3167 3166 3166 3166 3166 3167
3096 3102 3107 3111 3115 3118 3123 3127 3131 3135 3137 3140 3143 3146 3149 3151 3153 3156 3157 3158 3158 3160 3161 3162 3162 3163 3164 3165 3165 3164 3164 3165 3165 3165 3165 3165 3166 3166 3165 3167 3166 3165 3164 3164 3164 3164 3165
3088 3093 3098 3104 3109 3113 3118 3121 3126 3130 3132 3135 3138 3141 3144 3146 3149 3151 3153 3154 3153 3155 3157 3157 3158 3159 3161 3160 3160 3161 3162 3161 3162 3163 3162 3162 3164 3164 3163 3164 3164 3161 3162 3163 3163 3162 3162
3078 3086 3089 3094 3101 3106 3111 3116 3121 3125 3127 3130 3134 3136 3139 3142 3145 3147 3149 3150 3149 3151 3153 3153 3154 3158 3157 3156 3156 3157 3158 3157 3158 3159 3160 3161 3160 3159 3162 3162 3162 3160 3159 3160 3161 3163 3161
3073 3078 3082 3087 3093 3098 3102 3108 3115 3119 3122 3125 3128 3132 3134 3137 3140 3142 3146 3147 3149 3149 3149 3151 3151 3152 3151 3153 3154 3154 3154 3155 3155 3157 3158 3157 3158 3155 3159 3159 3159 3159 3159 3158 3159 3159 3158
3061 3068 3074 3081 3086 3091 3095 3101 3106 3112 3117 3119 3123 3127 3130 3132 3136 3139 3140 3143 3143 3144 3144 3145 3147 3146 3147 3149 3150 3149 3150 3153 3152 3153 3154 3155 3154 3154 3154 3155 3156 3155 3156 3156 3156 3156 3155
3050 3058 3064 3072 3078 3083 3087 3092 3096 3103 3109 3113 3118 3122 3126 3129 3131 3135 3136 3139 3139 3138 3138 3141 3142 3143 3143 3143 3143 3146 3145 3146 3147 3149 3150 3151 3153 3151 3151 3151 3152 3153 3153 3154 3155 3153 3153
3040 3048 3055 3062 3069 3076 3081 3085 3088 3094 3100 3106 3112 3117 3120 3123 3130 3130 3133 3136 3136 3135 3136 3136 3135 3133 3135 3136 3137 3138 3138 3142 3142 3144 3146 3146 3147 3147 3148 3150 3151 3151 3152 3153 3151 3151 3151
3030 3038 3045 3051 3060 3066 3072 3079 3084 3086 3091 3097 3103 3110 3111 3116 3123 3127 3129 3132 3134 3136 3136 3133 3131 3131 3132 3134 3134 3133 3134 3136 3137 3141 3144 3144 3144 3144 3146 3146 3147 3149 3148 3149 3148 3148 3147
3023 3029 3035 3042 3049 3056 3062 3070 3077 3083 3087 3089 3097 3100 3107 3111 3114 3122 3124 3128 3132 3139 3129 3128 3128 3129 3130 3131 3131 3132 3133 3135 3136 3136 3137 3138 3141 3142 3143 3144 3145 3146 3146 3144 3144 3144 3142
3016 3020 3027 3034 3039 3046 3054 3060 3067 3075 3080 3087 3091 3096 3100 3103 3110 3114 3116 3123 3131 3126 3125 3126 3125 3127 3128 3130 3130 3131 3132 3133 3134 3134 3134 3135 3136 3137 3138 3139 3141 3142 3143 3143 3140 3140 3135
3011 3015 3021 3027 3031 3038 3045 3052 3058 3066 3072 3078 3086 3093 3094 3098 3105 3110 3115 3119 3121 3116 3120 3122 3123 3124 3127 3129 3129 3129 3130 3131 3132 3132 3133 3134 3134 3135 3135 3136 3137 3137 3139 3139 3135 3134 3133
3004 3009 3014 3019 3025 3031 3037 3044 3050 3056 3064 3070 3077 3084 3091 3096 3100 3105 3111 3108 3108 3113 3117 3120 3122 3122 3124 3126 3128 3127 3128 3130 3129 3130 3133 3132 3133 3133 3135 3135 3137 3135 3135 3135 3134 3132 3133
2997 3003 3007 3013 3018 3024 3031 3038 3044 3049 3056 3063 3069 3075 3081 3089 3093 3099 3104 3101 3103 3110 3115 3118 3119 3120 3120 3124 3126 3125 3127 3128 3128 3128 3130 3131 3132 3132 3134 3134 3134 3134 3134 3133 3133 3130 3126
2989 2994 3000 3005 3011 3018 3025 3032 3039 3043 3050 3056 3063 3068 3076 3081 3087 3093 3091 3095 3100 3106 3113 3115 3114 3115 3120 3122 3124 3124 3126 3128 3126 3127 3127 3128 3130 3133 3132 3131 3130 3132 3132 3132 3130 3129 3127
2981 2987 2993 2997 3004 3012 3019 3026 3032 3038 3044 3050 3055 3062 3069 3074 3079 3081 3083 3089 3094 3100 3107 3109 3112 3115 3116 3119 3122 3125 3126 3125 3124 3125 3126 3127 3127 3129 3129 3129 3129 3129 3128 3130 3128 3127 3124
2973 2979 2986 2991 2998 3004 3012 3020 3026 3031 3038 3045 3049 3058 3063 3067 3066 3071 3076 3083 3089 3096 3099 3103 3107 3112 3114 3117 3123 3121 3122 3122 3122 3123 3123 3124 3126 3126 3124 3127 3126 3125 3123 3124 3125 3124 3121
2965 2973 2980 2985 2991 2998 3006 3014 3019 3026 3033 3040 3046 3051 3056 3058 3061 3067 3073 3079 3084 3088 3093 3098 3103 3107 3110 3113 3117 3118 3118 3119 3120 3121 3122 3122 3123 3124 3125 3123 3123 3122 3122 3123 3122 3118 3111
2957 2964 2972 2979 2986 2992 3000 3007 3013 3020 3026 3033 3037 3042 3047 3047 3054 3061 3069 3073 3079 3084 3089 3093 3098 3102 3107 3110 3112 3113 3114 3115 3116 3118 3118 3120 3119 3119 3118 3117 3114 3111 3114 3115 3112 3108 3107
2949 2957 2965 2972 2981 2986 2993 3001 3007 3013 3020 3025 3029 3036 3041 3044 3049 3057 3064 3067 3074 3081 3085 3088 3091 3098 3101 3105 3108 3108 3109 3111 3112 3113 3114 3115 3115 3114 3111 3111 3108 3102 3104 3103 3101 3099 3095
2940 2949 2958 2965 2973 2980 2987 2994 3000 3007 3012 3010 3021 3028 3035 3041 3046 3052 3055 3063 3069 3075 3078 3084 3088 3092 3095 3099 3101 3101 3102 3106 3107 3107 3110 3111 3111 3111 3105 3106 3103 3096 3093 3094 3093 3092 3091
2931 2940 2948 2957 2965 2972 2980 2988 2994 3000 3005 3011 3018 3026 3030 3037 3041 3049 3053 3060 3066 3070 3075 3079 3083 3086 3092 3093 3095 3095 3097 3099 3100 3102 3104 3104 3105 3108 3103 3103 3098 3090 3088 3089 3087 3086 3086
2921 2930 2939 2948 2956 2965 2973 2980 2987 2994 3000 3005 3012 3019 3025 3032 3039 3044 3050 3056 3062 3066 3070 3075 3080 3084 3086 3089 3089 3090 3092 3094 3094 3095 3097 3098 3099 3102 3100 3096 3086 3085 3084 3083 3081 3079 3078
2911 2920 2929 2939 2947 2956 2964 2973 2980 2988 2994 3000 3005 3013 3021 3028 3032 3040 3045 3051 3056 3061 3064 3068 3075 3079 3082 3083 3085 3086 3087 3090 3090 3089 3090 3091 3094 3097 3096 3093 3085 3078 3078 3078 3076 3070 3070
2901 2910 2919 2928 2937 2947 2956 2965 2972 2980 2988 2995 3000 3007 3015 3020 3027 3033 3040 3046 3051 3056 3060 3066 3070 3074 3076 3078 3080 3081 3082 3085 3086 3085 3086 3087 3088 3090 3089 3087 3079 3074 3073 3073 3073 3072 3064
2890 2900 2909 2918 2928 2937 2946 2957 2965 2973 2981 2988 2994 3002 3008 3013 3020 3029 3034 3042 3045 3050 3055 3061 3067 3067 3070 3073 3074 3074 3075 3077 3078 3080 3081 3083 3083 3083 3083 3083 3076 3070 3070 3072 3068 3061 3059
2878 2888 2898 2908 2918 2927 2937 2948 2957 2965 2974 2982 2989 2996 3006 3011 3016 3022 3028 3036 3042 3048 3052 3055 3059 3061 3064 3066 3067 3069 3069 3069 3071 3072 3074 3076 3076 3077 3076 3071 3070 3068 3065 3061 3057 3053 3052
Wind_Speed
30 33 33 35 35 34 35 34 34 33 32 30 29 26 25 23 21 21 20 20 21 21 20 19 18 17 14 13 10 12 13 12 10 10 9 7 8 10 11 11 12 16 17 17 17 18 21
37 37 34 34 33 33 34 34 35 34 33 33 31 29 28 27 25 23 23 22 23 23 23 22 22 21 20 16 14 11 12 11 11 10 9 8 9 9 10 11 13 17 19 20 20 18 19
35 38 38 36 33 32 31 31 33 34 33 33 32 31 29 29 27 26 24 25 25 24 23 23 21 22 20 18 17 14 14 13 11 10 9 9 10 10 10 10 12 13 19 16 15 7 2
35 37 40 38 35 34 32 30 28 28 30 31 32 32 31 30 29 28 25 25 25 24 23 22 21 20 20 18 18 15 15 15 13 11 11 11 12 13 13 12 15 16 18 13 2 1 4
38 32 33 42 38 36 35 32 31 30 28 28 29 30 29 28 28 26 24 23 22 21 19 19 18 17 18 17 17 18 16 16 15 13 13 12 12 15 15 14 16 12 12 12 5 3 5
34 35 33 34 42 40 39 38 33 31 29 26 25 25 25 24 23 23 21 19 18 18 16 16 17 14 13 13 11 9 12 15 14 13 13 12 15 18 13 13 11 7 6 6 6 5 14
55 44 44 41 38 42 34 35 36 32 29 28 25 25 22 19 19 20 18 18 18 17 17 16 13 15 11 12 10 10 14 17 17 17 13 14 17 21 11 12 12 14 14 15 11 10 14
58 53 51 46 43 35 44 43 36 35 32 28 27 25 21 18 18 18 17 16 15 18 22 19 19 21 19 16 21 19 21 19 19 17 16 18 21 17 16 16 14 11 15 17 16 8 14
55 57 55 52 50 36 34 42 46 33 36 32 27 24 23 23 18 19 18 17 16 17 23 23 21 21 20 22 21 20 21 24 23 22 20 19 16 12 13 14 18 15 16 15 16 15 14
51 54 56 55 52 47 37 21 45 54 34 38 25 28 25 21 18 17 15 17 18 20 16 22 21 17 19 22 21 23 23 26 27 25 22 16 14 17 19 19 17 19 18 14 16 13 8
49 51 51 52 54 51 50 45 24 23 39 37 29 36 33 24 20 20 16 12 13 16 5 9 8 7 7 5 7 5 7 14 23 25 23 17 13 12 11 12 15 11 9 8 12 16 16
39 41 44 47 48 48 46 47 46 28 17 25 32 28 37 30 18 23 19 17 12 12 9 6 7 6 6 4 3 2 2 3 7 15 21 23 22 20 16 12 10 7 15 18 15 14 8
35 36 36 38 40 42 45 44 46 46 40 28 29 21 27 26 22 24 16 18 12 12 7 10 10 8 7 4 5 5 4 4 5 4 9 8 8 9 16 22 23 22 19 6 4 4 6
36 32 36 34 37 39 40 40 42 41 44 46 33 33 20 21 19 21 18 12 15 7 19 8 10 10 7 4 2 2 4 6 8 10 8 4 2 1 3 5 9 9 12 9 6 5 4
43 41 41 37 33 32 35 36 37 36 37 37 38 40 29 17 22 25 25 25 12 18 13 22 14 9 9 6 7 5 4 6 8 8 8 3 2 1 4 4 6 5 6 10 8 6 1
43 44 42 38 36 33 31 32 33 33 35 33 33 34 37 33 29 23 31 31 23 24 13 16 17 10 3 6 5 1 2 3 4 6 10 6 6 9 10 9 6 9 10 5 5 3 5
39 37 33 35 33 33 32 31 31 32 31 30 31 30 28 30 26 30 38 39 31 25 20 16 16 11 9 6 4 2 3 4 4 6 7 15 16 10 11 7 8 7 4 6 7 5 3
39 37 34 33 35 34 33 32 32 32 30 30 30 27 27 29 36 40 41 40 33 30 27 20 20 18 14 12 8 8 7 4 2 6 7 5 5 6 7 13 15 17 14 11 7 4 10
39 38 36 36 36 36 35 34 34 35 33 30 30 27 27 31 43 43 42 36 31 30 29 28 23 19 19 13 10 8 14 12 9 8 2 3 2 3 3 3 5 11 15 15 13 15 18
35 34 35 34 36 37 37 36 36 36 34 32 30 26 30 30 39 38 41 30 43 39 28 21 20 23 25 26 23 10 10 7 8 11 10 8 7 7 10 13 17 16 15 20 22 17 23
37 36 35 33 32 33 36 38 38 36 35 36 36 32 30 34 34 38 31 37 31 28 25 36 32 30 24 23 22 22 21 21 20 17 14 14 14 18 22 22 22 29 25 26 31 34 24
40 39 37 34 33 33 35 36 39 38 36 40 41 39 36 34 23 35 34 26 32 29 41 38 27 24 28 27 22 15 13 15 15 17 20 20 14 17 23 24 25 31 30 34 31 35 41
43 42 40 37 36 33 34 36 37 37 40 45 45 44 38 36 28 27 37 36 20 24 20 21 21 25 22 22 23 29 23 22 22 25 24 24 23 16 15 16 22 27 14 14 21 20 18
44 43 41 39 38 36 36 37 39 38 39 42 41 44 44 36 29 29 22 22 36 28 27 18 25 22 22 24 23 21 25 22 22 20 21 23 22 15 15 19 9 15 12 25 28 26 24
46 45 43 41 40 39 38 38 39 41 40 40 40 43 45 42 33 24 26 19 15 21 35 30 29 26 19 14 13 10 12 15 21 20 21 23 22 16 9 16 28 26 16 13 17 27 26
47 46 45 44 42 41 40 39 40 41 41 38 41 39 39 42 40 36 22 25 26 22 18 24 28 27 24 19 12 11 8 6 5 4 11 15 20 21 15 7 6 12 20 25 27 28 16
49 48 47 45 44 43 42 41 41 41 42 40 40 40 39 40 39 25 30 20 24 29 27 27 28 30 26 24 21 19 15 13 9 9 8 12 14 21 22 15 17 21 21 19 11 20 27
51 50 49 48 47 45 44 43 43 44 44 42 41 39 36 38 39 37 21 25 20 22 25 25 24 26 20 25 23 18 14 13 13 18 13 13 9 15 15 14 13 11 16 25 37 38 39
52 52 51 50 48 47 46 45 45 46 45 42 43 42 39 35 30 33 37 35 24 22 23 22 22 19 22 22 20 14 17 16 18 14 15 17 23 16 15 12 22 32 30 39 36 31 34
Wind_Direction
237 236 232 231 230 231 231 232 231 233 236 238 240 242 245 247 250 254 259 266 271 274 279 284 287 290 296 298 292 298 304 310 316 320 311 291 262 263 260 268 273 279 282 279 270 262 257
236 236 236 233 232 232 233 236 235 235 238 238 240 242 245 248 251 255 260 265 269 273 276 278 283 286 286 289 289 287 287 295 303 306 303 288 271 263 261 269 277 282 283 284 284 287 283
230 230 229 232 231 230 228 232 235 237 240 242 242 243 245 249 254 256 260 266 270 271 273 274 274 276 278 277 275 275 277 281 288 292 292 280 274 267 272 280 275 285 288 289 296 295 235
243 226 234 228 229 226 220 223 227 232 237 240 243 244 246 249 251 255 257 261 266 269 270 271 270 269 269 268 266 260 262 270 274 275 276 273 274 276 273 274 280 285 292 310 221 151 266
241 251 245 232 228 227 229 226 229 232 235 237 239 242 243 245 250 251 253 254 260 266 269 270 270 268 269 266 261 259 257 256 259 261 262 271 282 278 279 286 284 286 282 292 282 245 280
223 237 240 249 224 228 229 233 235 234 234 237 239 238 239 242 247 248 249 249 258 263 267 267 267 266 253 257 259 266 255 246 249 251 261 272 275 275 289 286 277 282 281 265 285 277 297
237 228 235 247 245 240 225 225 231 235 231 233 236 239 236 237 242 242 243 249 259 264 263 265 255 252 248 260 258 247 248 251 252 253 261 269 266 272 291 280 267 267 265 272 291 316 298
228 231 236 237 244 244 240 226 228 228 229 229 230 234 233 233 237 236 239 252 261 271 260 262 265 265 263 265 262 257 251 250 251 250 253 261 269 287 274 263 257 262 275 274 292 314 308
230 232 235 239 238 240 242 242 236 221 238 229 233 230 229 237 237 238 239 252 264 280 281 263 263 270 272 266 267 259 251 251 251 251 255 263 267 269 300 255 250 254 271 284 288 302 299
233 232 234 237 237 243 240 260 235 240 232 233 218 224 227 226 232 229 246 256 262 270 294 291 287 265 251 251 248 252 244 242 248 255 262 274 279 275 272 258 252 271 283 286 281 285 291
231 233 234 235 235 236 238 239 245 225 221 222 216 227 233 221 230 231 227 240 249 268 306 277 244 240 220 202 202 213 247 237 246 255 256 259 272 291 287 281 267 279 279 305 278 279 268
231 232 232 233 234 234 235 235 233 251 248 213 227 233 225 215 233 228 227 247 248 251 240 231 228 209 172 166 185 209 288 265 253 241 251 259 263 270 271 258 261 256 291 298 277 259 248
227 231 232 231 231 231 231 232 235 235 244 256 257 258 242 246 239 232 244 238 243 216 205 219 215 216 215 243 233 272 281 286 266 243 258 279 278 272 262 258 255 263 274 279 258 218 263
226 233 230 231 228 230 230 230 233 233 235 237 240 238 234 228 228 240 221 220 221 228 214 199 191 217 215 188 203 259 281 289 269 253 258 265 245 204 306 295 259 273 247 227 260 257 289
220 222 224 226 228 227 227 226 226 228 230 233 233 224 235 240 238 236 226 229 223 235 231 226 215 217 212 262 247 257 305 304 285 254 234 232 230 206 324 313 325 291 254 264 261 269 254
223 226 225 229 226 225 221 220 220 220 223 224 228 228 223 232 235 227 220 231 233 240 223 218 218 220 211 231 209 162 193 254 311 243 234 256 267 270 263 281 291 295 288 239 233 267 269
224 221 219 220 218 218 217 217 217 218 218 218 221 222 219 223 220 202 222 223 237 232 214 194 196 194 182 176 198 152 204 250 270 276 269 245 244 247 272 280 285 270 267 258 235 239 266
220 218 214 214 215 214 213 213 213 217 214 214 218 218 214 211 201 209 220 223 228 227 213 218 221 223 229 233 247 288 247 229 272 317 312 261 258 235 277 302 285 273 279 316 304 279 239
218 218 218 216 216 213 212 211 213 215 214 214 219 215 211 208 208 207 217 209 212 221 217 230 230 234 241 256 272 275 264 260 277 268 243 262 266 317 294 293 319 300 302 282 272 293 270
217 220 219 217 214 214 213 212 214 215 213 214 214 214 213 217 218 220 212 221 231 234 232 227 233 244 243 257 261 247 227 257 261 270 275 288 279 278 271 286 295 284 283 286 289 271 272
213 212 211 213 213 214 213 211 214 214 213 213 215 214 214 215 219 216 218 223 223 225 232 235 236 235 241 260 255 246 246 268 269 270 273 288 291 293 294 296 290 291 288 287 278 276 260
215 215 215 214 214 210 210 211 214 213 213 215 217 213 215 222 224 222 213 227 230 234 235 237 228 243 252 249 248 237 268 263 262 263 271 276 283 295 294 293 291 296 299 298 295 287 280
217 218 217 214 213 212 211 210 212 214 215 215 214 217 218 221 224 225 219 215 220 226 233 233 234 230 247 258 251 268 266 271 270 267 267 274 279 291 282 290 304 297 298 310 315 300 298
220 220 219 217 216 212 212 212 213 213 220 226 222 220 220 220 223 226 234 229 231 227 237 222 232 238 244 247 273 259 252 262 270 270 269 274 270 258 273 290 270 285 290 303 296 294 303
222 222 222 222 219 218 214 215 215 215 219 222 224 221 224 225 223 225 227 224 213 224 230 239 243 259 261 241 256 279 284 271 266 260 254 251 251 248 247 257 279 291 297 299 305 305 298
222 223 223 223 222 221 218 217 218 216 217 218 227 225 226 227 229 227 225 226 223 217 214 217 230 239 229 246 244 238 224 237 251 238 230 235 233 232 254 255 272 294 296 297 311 294 302
223 224 225 225 223 221 220 217 218 217 216 213 220 227 226 229 224 230 225 233 229 225 232 236 234 242 244 242 236 233 238 220 228 231 246 232 221 229 242 255 271 286 292 298 313 312 306
222 223 224 224 224 223 221 218 217 216 214 212 218 223 227 230 233 225 219 219 218 218 224 228 227 230 225 217 231 234 231 230 237 250 245 245 241 234 236 239 267 307 299 301 310 310 308
222 221 222 222 222 222 222 219 216 216 213 211 214 220 225 234 233 238 234 225 221 221 224 222 223 234 226 216 222 219 233 231 246 245 238 243 233 246 233 255 275 292 297 306 318 314 304